Midland, VA

6:34 AM EST on February 26, 2017 (GMT -0500)
Warrenton

Weather History for KHWY - August, 2014

Change the Weather History Date:

Monday, August 25, 2014

  Actual Average (KHEF) Record (KHEF)
Temperature  
Mean Temperature 68 °F -  
Max Temperature 82 °F 82 °F 96 °F (1998)
Min Temperature 54 °F 62 °F 53 °F (2005)
Cooling Degree Days 3    
Growing Degree Days 18 (Base 50)    
Moisture  
Dew Point 61 °F    
Average Humidity 84    
Maximum Humidity 100    
Minimum Humidity 51    
Precipitation  
Precipitation 0.00 in - - ()
Sea Level Pressure  
Sea Level Pressure 30.16 in    
Wind  
Wind Speed 2 mph (ENE)    
Max Wind Speed 10 mph    
Max Gust Speed -    
Visibility 6 miles    
Events Fog    
Averages and records for this station are not official NWS values.
T = Trace of Precipitation, MM = Missing Value Source: NWS Daily Summary

Daily Weather History Graph

Daily Weather History Graph

Search for Another Location

Airport or City:

Trip Planner

Search our weather history database for the weather conditions in past years. The results will help you decide how hot, cold, wet, or windy it might be!

Date:

Astronomy

Aug. 25, 2014 Rise Set
Actual Time 6:33 AM EDT 7:51 PM EDT
Civil Twilight 6:06 AM EDT 8:18 PM EDT
Nautical Twilight 5:33 AM EDT 8:51 PM EDT
Astronomical Twilight 4:58 AM EDT 9:26 PM EDT
Moon 6:36 AM EDT (8/25) 7:41 PM EDT (8/25)
Length of Visible Light 14h 12m
Length of Day
13h 17m
New Moon, 0% of the Moon is Illuminated
Aug 25
New Moon
Sep 2
First Quarter
Sep 8
Full
Sep 15
Last Quarter
Sep 24
New

Hourly Weather History & Observations

Time (EDT) Temp. Heat Index Dew Point Humidity Pressure Visibility Wind Dir Wind Speed Gust Speed Precip Events Conditions
12:15 AM 57.4 °F - 57.4 °F 100% 30.15 in 0.2 mi Calm Calm - N/A Fog Fog
12:35 AM 57.9 °F - 57.9 °F 100% 30.15 in 0.2 mi Calm Calm - N/A Fog Fog
12:55 AM 57.4 °F - 57.4 °F 100% 30.15 in 0.5 mi Calm Calm - N/A Fog Fog
1:15 AM 58.3 °F - 58.3 °F 100% 30.16 in 1.0 mi Calm Calm - N/A   Mostly Cloudy
1:35 AM 58.1 °F - 58.1 °F 100% 30.16 in 2.0 mi Calm Calm - N/A   Mostly Cloudy
1:55 AM 59.0 °F - 59.0 °F 100% 30.16 in 4.0 mi Calm Calm - N/A   Mostly Cloudy
2:15 AM 60.1 °F - 60.1 °F 100% 30.16 in 7.0 mi Calm Calm - N/A   Clear
2:35 AM 59.0 °F - 59.0 °F 100% 30.15 in 1.0 mi Calm Calm - N/A   Mist
2:55 AM 57.9 °F - 57.9 °F 100% 30.15 in 0.8 mi Calm Calm - N/A   Mist
3:15 AM 56.1 °F - 56.1 °F 100% 30.15 in 0.2 mi Calm Calm - N/A Fog Fog
3:35 AM 56.8 °F - 56.8 °F 100% 30.14 in 0.5 mi Calm Calm - N/A Fog Fog
3:55 AM 58.5 °F - 58.5 °F 100% 30.14 in 0.5 mi Calm Calm - N/A Fog Fog
4:15 AM 57.2 °F - 57.2 °F 100% 30.14 in 1.5 mi Calm Calm - N/A   Mist
4:35 AM 57.7 °F - 57.7 °F 100% 30.15 in 3.0 mi Calm Calm - N/A   Clear
4:55 AM 56.3 °F - 56.3 °F 100% 30.14 in 1.0 mi Calm Calm - N/A   Mist
5:15 AM 55.6 °F - 55.6 °F 100% 30.14 in 0.2 mi Calm Calm - N/A Fog Fog
5:35 AM 55.6 °F - 55.6 °F 100% 30.14 in 0.2 mi Calm Calm - N/A Fog Fog
5:55 AM 54.5 °F - 54.5 °F 100% 30.15 in 0.2 mi Calm Calm - N/A Fog Fog
6:15 AM 54.0 °F - 54.0 °F 100% 30.15 in 0.5 mi Calm Calm - N/A Fog Fog
6:35 AM 54.0 °F - 54.0 °F 100% 30.16 in 0.2 mi Calm Calm - N/A Fog Fog
6:55 AM 54.9 °F - 54.9 °F 100% 30.16 in 0.2 mi Calm Calm - N/A Fog Fog
7:15 AM 56.3 °F - 56.3 °F 100% 30.16 in 0.2 mi Calm Calm - N/A Fog Fog
7:35 AM 59.0 °F - 59.0 °F 100% 30.17 in 1.8 mi Calm Calm - N/A   Mist
7:55 AM 61.2 °F - 61.2 °F 100% 30.18 in 10.0 mi Calm Calm - N/A   Clear
8:15 AM 63.0 °F - 63.0 °F 100% 30.18 in 10.0 mi Calm Calm - N/A   Clear
8:35 AM 64.9 °F - 64.9 °F 100% 30.18 in 10.0 mi NE 3.5 mph - N/A   Clear
8:55 AM 66.2 °F - 66.2 °F 100% 30.18 in 10.0 mi NNE 5.8 mph - N/A   Clear
9:15 AM 67.8 °F - 67.8 °F 100% 30.18 in 10.0 mi NNE 3.5 mph - N/A   Clear
9:35 AM 71.2 °F - 70.7 °F 98% 30.19 in 10.0 mi NNE 4.6 mph - N/A   Clear
9:55 AM 73.2 °F - 68.7 °F 86% 30.19 in 10.0 mi NE 5.8 mph - N/A   Clear
10:35 AM 75.0 °F - 66.4 °F 74% 30.20 in 10.0 mi ENE 5.8 mph - N/A   Clear
10:55 AM 75.6 °F - 66.0 °F 72% 30.20 in 10.0 mi ENE 8.1 mph - N/A   Scattered Clouds
11:15 AM 76.5 °F - 65.7 °F 69% 30.20 in 10.0 mi ENE 8.1 mph - N/A   Clear
11:35 AM 76.5 °F - 65.3 °F 68% 30.20 in 10.0 mi ENE 10.4 mph - N/A   Clear
11:55 AM 77.2 °F - 65.3 °F 67% 30.20 in 10.0 mi ENE 5.8 mph - N/A   Scattered Clouds
12:15 PM 77.7 °F - 64.6 °F 64% 30.20 in 10.0 mi East 5.8 mph - N/A   Scattered Clouds
12:35 PM 77.7 °F - 63.5 °F 61% 30.20 in 10.0 mi NE 6.9 mph - N/A   Clear
12:55 PM 78.3 °F - 63.1 °F 60% 30.19 in 10.0 mi NNE 6.9 mph - N/A   Clear
1:15 PM 79.7 °F - 63.9 °F 58% 30.19 in 10.0 mi NE 8.1 mph - N/A   Clear
1:35 PM 80.1 °F 81.7 °F 64.0 °F 58% 30.18 in 10.0 mi NE 10.4 mph - N/A   Scattered Clouds
1:55 PM 80.2 °F 81.8 °F 63.5 °F 57% 30.18 in 10.0 mi ENE 3.5 mph - N/A   Scattered Clouds
2:15 PM 80.6 °F 82.2 °F 64.2 °F 57% 30.18 in 10.0 mi North 5.8 mph - N/A   Scattered Clouds
2:35 PM 80.2 °F 81.5 °F 62.8 °F 55% 30.17 in 10.0 mi Calm Calm - N/A   Clear
2:55 PM 81.3 °F 83.0 °F 64.6 °F 57% 30.16 in 10.0 mi ENE 9.2 mph - N/A   Clear
3:15 PM 81.3 °F 82.9 °F 64.2 °F 56% 30.16 in 10.0 mi NNE 5.8 mph - N/A   Clear
3:35 PM 81.5 °F 82.7 °F 62.6 °F 53% 30.15 in 10.0 mi Calm Calm - N/A   Clear
3:55 PM 81.7 °F 82.9 °F 63.1 °F 53% 30.15 in 10.0 mi ENE 3.5 mph - N/A   Clear
4:15 PM 81.7 °F 83.0 °F 63.3 °F 54% 30.14 in 10.0 mi ENE 4.6 mph - N/A   Clear
4:35 PM 82.2 °F 83.2 °F 62.6 °F 51% 30.14 in 10.0 mi East 3.5 mph - N/A   Clear
4:55 PM 81.1 °F 82.4 °F 63.1 °F 54% 30.14 in 10.0 mi NNE 5.8 mph - N/A   Clear
5:15 PM 81.7 °F 83.2 °F 63.9 °F 55% 30.14 in 10.0 mi East 6.9 mph - N/A   Clear
5:35 PM 81.7 °F 83.5 °F 64.9 °F 57% 30.14 in 10.0 mi ESE 5.8 mph - N/A   Clear
5:55 PM 81.0 °F 82.6 °F 64.4 °F 57% 30.14 in 10.0 mi East 4.6 mph - N/A   Clear
6:15 PM 80.2 °F 81.8 °F 63.9 °F 57% 30.13 in 10.0 mi East 5.8 mph - N/A   Clear
6:35 PM 76.3 °F - 64.9 °F 68% 30.14 in 10.0 mi East 4.6 mph - N/A   Clear
6:55 PM 75.2 °F - 66.9 °F 75% 30.15 in 10.0 mi Calm Calm - N/A   Clear
7:15 PM 75.6 °F - 65.8 °F 72% 30.15 in 10.0 mi Calm Calm - N/A   Clear
7:35 PM 71.6 °F - 67.3 °F 86% 30.15 in 10.0 mi Calm Calm - N/A   Clear
7:55 PM 68.2 °F - 65.8 °F 92% 30.15 in 10.0 mi Calm Calm - N/A   Clear
8:15 PM 65.8 °F - 64.8 °F 96% 30.15 in 10.0 mi Calm Calm - N/A   Clear
8:35 PM 62.8 °F - 62.8 °F 100% 30.14 in 10.0 mi Calm Calm - N/A   Clear
8:55 PM 61.7 °F - 61.7 °F 100% 30.15 in 10.0 mi Calm Calm - N/A   Clear
9:15 PM 60.8 °F - 60.8 °F 100% 30.15 in 10.0 mi Calm Calm - N/A   Clear
9:35 PM 59.7 °F - 59.7 °F 100% 30.16 in 10.0 mi Calm Calm - N/A   Clear
9:55 PM 59.0 °F - 59.0 °F 100% 30.16 in 10.0 mi Calm Calm - N/A   Clear
10:15 PM 59.7 °F - 59.7 °F 100% 30.16 in 2.5 mi Calm Calm - N/A   Clear
10:35 PM 59.2 °F - 59.2 °F 100% 30.16 in 1.0 mi Calm Calm - N/A   Mist
10:55 PM 56.8 °F - 56.8 °F 100% 30.16 in 1.8 mi Calm Calm - N/A   Mist
11:15 PM 58.1 °F - 58.1 °F 100% 30.16 in 1.0 mi Calm Calm - N/A   Mist
11:35 PM 59.0 °F - 59.0 °F 100% 30.16 in 1.8 mi Calm Calm - N/A   Mist
11:55 PM 56.8 °F - 56.8 °F 100% 30.15 in 1.0 mi Calm Calm - N/A   Mist